MUNIN

Satellite information

Favourite Embed

Satellite Type and Status

PAYLOADIN ORBIT

Key statistics

Satellite MUNIN at a glance.

Uptime

9103

Days in orbit

Revolutions

≈ 13.0

Per day

Orbit

SSO

Sun Synchronous Orbit

Inclination

95.4

Latest

Satellite identification and parameters

Extended collection of information and parameters for MUNIN.

Object identification

Identified? True

Debris? False

Object name: MUNIN

International designator: 2000-075C

Object number (NORAD): 26621

Object ID (CCSDS): 26621

Country: SWEDEN (SWED)

Current information (Y/N): Y

RCS size: MEDIUM

Orbital parameters

Period: 110.364 minutes

Inclination: 95.3975 deg

SMA: 7621.603 km

Apoapsis: 1785.866 km

Periapsis: 701.07 km

RAAN: 331.408 deg

Eccentricy: 0.07116592

Argument of periapsis: 143.6448 deg

Mean anomaly: 221.526 deg

Mean motion: 13.04767912 rev/day

Mean motion (dot): 0.00000497 rev/day2

B* drag term: 0.00045603218 1/REarth

Two-line elements (TLE)

Creation date: Oct. 23, 2025, 2:46 a.m.

Reference frame: TEME

Reference center: EARTH

Epoch: Oct. 22, 2025, 8:27 p.m. UTC

TLE line 0: 0 MUNIN

TLE line 1: 1 26621U 00075C 25295.85241029 .00000497 00000-0 45603-3 0 9994

TLE line 2: 2 26621 95.3975 331.4080 0711659 143.6448 221.5260 13.04767912185850

Live tracking on map

Real-time ground track for satellite MUNIN.

In-orbit conjunctions

A list of the most updated potential collisions computed for object MUNIN.

Target Orbit TCA Probability of collision Miss distance Type
THORAD AGENA D DEB SSO 2024-10-27 20:49:29 0.0001018152 983.0 (m) DEBRIS

Associated space launch

EO 1 and SAS C are American and Argentinian Earth-imaging satellites.

MUNIN was lifted into orbit during the mission ‘Delta II | EO 1 & SAC C’, on board a Delta II space rocket.

The launch took place on Nov. 21, 2000, 6:24 p.m. from Space Launch Complex 2W.

For more information about the launch, click the button.

Launch to space Delta II | EO 1 & SAC C
Delta II | EO 1 & SAC C

Agency: N/A

Status: Launch Successful

Launch date: Nov. 21, 2000, 6:24 p.m. UTC

Rocket: Delta II

Launch pad: Space Launch Complex 2W

Location: Vandenberg SFB, CA, USA

...

Latest news about this satellite

There are no fresh news available about this satellite. Check back as we update our databases every day.


Newsletter sign-up

Weekly statistics, charts and insights to help you stay on top of the space industry.